Vertical_Velocity
-1 -1 1 -1 -1 -1 -1 2 3 1 3 3 2 0 -1 1 7 -4 1 -3 -3 -5 -3 -1 -2 -0 1 1 -0 1 -0 0 -1 -0 1 1 -0 0 0 1 -1 -0 -1 -1 -1 1 -1 -1 0
-1 -2 -2 -2 -2 0 1 4 4 1 3 1 1 1 -0 2 0 3 4 -1 -4 -0 1 0 0 -1 0 1 1 1 0 0 0 -1 -1 0 1 1 1 0 -0 -2 -1 -1 -1 -1 -1 -0 1
-0 -1 -3 -2 -3 -3 -0 3 4 3 2 -0 1 1 0 7 7 3 2 -1 -2 -2 0 -1 -2 -1 -2 -0 -1 -0 -1 2 0 1 -1 -1 -1 1 1 2 -1 -1 -0 -2 -1 -2 -0 1 2
0 -3 -0 -4 -3 -2 1 1 3 2 4 -3 -0 -2 6 0 9 1 14 -2 4 1 -0 1 -1 -5 -4 -3 -4 -1 -1 -1 0 -2 -1 -3 -1 -1 0 0 1 0 1 -0 -1 -1 -3 -0 -0
-0 1 -2 -8 -6 -3 4 -1 3 -4 3 -3 -0 -3 -2 0 -4 -2 -0 8 12 6 3 3 1 3 -1 1 -1 -3 -3 -2 0 -1 -1 0 -1 -0 0 1 2 1 1 -1 -1 -2 -1 0 2
-2 2 0 -9 -5 3 1 0 -0 -2 3 -1 -2 -0 2 1 1 -3 5 6 2 6 1 1 2 -1 0 1 2 -2 0 -2 -0 -2 -0 -0 -0 0 0 -1 0 2 -0 -2 -1 -1 -1 -1 1
0 0 -4 -9 -2 0 2 1 1 -1 1 0 -1 -7 3 -1 1 -3 2 6 5 6 3 2 1 1 -2 -2 3 2 1 -1 -1 -2 -2 -2 -2 -1 0 -1 -1 -1 0 0 -1 -0 -2 -0 -3
3 2 -7 -4 -3 -8 2 2 0 -0 -0 3 -0 -2 -6 5 1 1 1 3 3 -1 11 5 2 -2 1 -2 -3 0 1 4 2 -1 -2 -1 -2 -1 -1 -0 -2 -0 -1 -2 -3 -1 1 -1 -1
3 -0 -8 -4 -0 -6 5 1 4 1 -4 -2 1 0 -3 -3 2 1 1 0 1 -1 -1 0 4 7 1 -2 1 -1 -1 -0 2 1 -2 -3 -2 -1 -2 -2 -1 -1 -2 -1 -2 -2 0 2 -3
3 -1 -3 -0 1 -7 -1 -1 6 0 1 -3 1 5 -3 -6 0 0 -1 -0 -1 2 1 2 3 1 -1 -1 -3 -1 0 0 1 2 1 -1 -2 -2 0 1 -2 -1 -1 -2 -3 -2 -2 3 -5
-1 -2 4 -4 -2 -1 -12 -1 3 2 5 -0 -0 3 7 -2 -6 -1 0 -2 -3 2 4 3 2 -0 1 2 -0 1 -2 -0 1 2 3 1 1 -0 -3 -2 -2 -1 -0 -0 -1 -3 -2 0 -1
1 0 1 -1 -1 -4 -2 -8 -7 7 -2 2 1 1 3 5 1 1 -1 -4 6 4 7 4 3 2 0 -0 -1 3 3 3 0 0 1 2 1 3 1 -1 -2 -2 -0 1 -1 -3 -2 -2 1
-1 1 2 0 -3 -1 -0 -1 0 -9 4 6 3 1 -3 5 -1 2 3 -1 -3 1 10 5 4 4 2 5 2 -0 4 3 6 3 -4 -3 -2 1 1 2 0 0 -1 2 1 -1 -2 -1 -0
-0 -2 -3 -1 -2 -0 -2 3 1 -7 5 -5 -1 4 3 -2 3 -4 -1 2 -1 3 4 8 5 8 5 2 3 1 -1 6 6 2 5 4 -2 -5 -1 0 -0 -1 -1 0 1 -1 -2 -2 0
-4 -5 0 1 -3 -3 -0 -2 -2 1 1 2 1 1 2 -3 -4 3 1 -4 -1 -2 2 1 9 11 2 5 5 4 2 -2 -2 3 3 3 5 5 1 -2 -2 2 2 -1 1 -1 -4 -1 -0
-4 -1 -1 -5 -2 4 4 -1 -8 -9 -7 -7 1 2 2 2 -2 -1 4 4 6 2 1 2 1 1 -0 -4 -23 4 2 4 2 2 7 4 0 -0 4 2 5 1 -2 2 1 1 -3 1 1
-2 -1 0 -9 1 -0 5 -1 -1 -3 -3 -3 -5 -0 -0 -1 3 1 -1 4 4 3 5 4 1 2 3 -17 -6 -2 -2 -2 4 -1 3 4 5 2 1 3 -1 6 5 -4 2 1 2 -1 0
-2 -3 -0 1 -9 4 -5 5 1 -4 -2 -4 -3 -1 1 0 4 7 6 5 7 7 2 0 4 4 -1 4 3 -2 -4 -2 -3 1 -3 -4 7 8 3 3 4 7 -2 3 -1 -1 4 4 3
0 1 1 -4 2 -7 -6 8 -15 4 0 -4 -5 -1 -8 -8 -2 -1 -2 -5 -5 1 2 3 7 10 2 -1 -3 -1 -18 -1 -1 -2 14 14 7 1 5 7 2 -1 4 3 6 4 -3 -3 5
-1 -4 -1 -4 -1 2 -1 13 -12 1 4 -1 -3 -1 -9 -4 2 2 3 6 2 3 -1 -1 -4 1 -4 4 4 4 5 5 4 -1 13 -5 16 7 4 4 3 4 6 3 2 3 -0 -4 -0
2 1 -0 -1 -11 -2 -7 -1 -0 -3 9 6 6 1 1 -5 -7 -7 -3 6 5 6 5 -0 2 -1 2 0 -0 1 3 7 -15 2 -3 10 -21 5 3 9 5 2 10 5 8 3 3 -1 1
2 -1 1 -1 -1 0 -7 -18 -13 9 -3 -2 -3 -1 -0 -4 -1 3 -6 -13 -5 2 -5 -0 5 1 0 -3 -1 -0 1 9 13 18 19 2 -20 -8 -14 -9 5 -7 11 10 4 4 3 14 -1
-4 -3 -4 -4 -1 8 -0 5 10 5 -8 -9 -10 -9 -6 -7 -7 -10 -9 -2 -4 -8 -2 -10 6 1 -0 -5 -3 5 7 14 21 15 12 15 6 -8 12 -2 11 -14 -32 13 6 -1 3 1 4
-4 -1 -4 0 0 3 2 -1 -7 2 7 3 -2 -6 -9 -15 -16 -11 -7 -12 -9 -3 -3 -10 -3 -2 5 1 -1 4 15 16 4 9 25 52 35 6 -2 -20 3 -3 -14 8 3 6 2 2 6
-2 -3 -4 0 1 0 0 1 -18 5 4 5 3 3 0 -4 -1 -5 -11 0 4 -1 -1 -5 2 -3 0 2 -4 18 16 1 -12 -5 9 -48 14 21 15 4 9 -3 1 4 8 4 3 0 4
-0 -3 -2 0 0 -4 -12 -2 -4 -14 -1 1 6 8 5 1 -3 3 -2 -9 -3 -1 9 5 2 -3 8 10 3 -3 39 4 10 -6 -43 -13 10 12 9 8 -2 5 0 3 5 -1 3 1 0
-2 -3 -2 -0 -6 6 -1 -4 -13 8 4 2 -5 1 -3 -6 -1 -1 -3 4 1 7 2 10 13 11 8 17 9 10 9 -2 -17 -8 -7 14 -8 0 3 1 -2 1 2 6 3 -1 -1 0 3
-4 -1 2 -1 0 -1 -6 -4 -6 -10 -8 -5 -5 -1 -4 4 1 3 -3 14 15 9 2 5 5 11 16 9 10 8 7 10 4 0 14 -5 5 4 3 -3 -2 -0 0 1 4 5 2 -2 2
-2 -2 -3 -2 0 1 0 -2 -4 1 1 -2 1 5 -12 7 1 6 11 3 18 21 12 5 1 8 40 8 6 4 -3 2 -3 2 -0 -6 -1 2 0 1 2 1 1 -1 1 3 3 -2 3
0 2 1 -2 -1 0 -1 -10 1 5 -0 -3 -3 -3 -2 2 4 1 9 1 6 -6 17 26 2 7 17 12 10 -1 2 5 -10 -5 -3 -1 7 -0 -2 -4 -2 -2 1 3 2 5 4 1 2
Height
3150 3151 3152 3154 3159 3154 3153 3155 3155 3155 3156 3155 3154 3153 3155 3155 3157 3161 3158 3158 3159 3162 3163 3161 3161 3161 3161 3160 3160 3161 3160 3159 3159 3159 3159 3161 3162 3162 3162 3163 3163 3164 3165 3166 3166 3166 3167 3167 3167
3149 3151 3152 3152 3154 3153 3153 3152 3153 3154 3154 3153 3154 3153 3154 3155 3155 3157 3158 3158 3160 3161 3161 3160 3160 3161 3161 3160 3159 3160 3160 3159 3159 3159 3159 3160 3161 3161 3161 3162 3162 3164 3165 3165 3165 3166 3166 3167 3167
3148 3149 3151 3151 3150 3151 3152 3153 3153 3152 3152 3153 3153 3153 3155 3155 3155 3157 3158 3158 3159 3159 3159 3159 3159 3160 3161 3161 3159 3160 3160 3159 3159 3159 3159 3159 3160 3161 3161 3161 3162 3163 3164 3164 3165 3165 3166 3166 3166
3145 3148 3149 3149 3148 3148 3149 3151 3150 3151 3151 3151 3152 3153 3154 3151 3153 3154 3157 3158 3158 3157 3157 3157 3158 3159 3160 3159 3159 3159 3160 3160 3159 3159 3159 3159 3160 3160 3161 3161 3162 3163 3163 3163 3164 3164 3165 3164 3164
3143 3145 3146 3145 3145 3145 3146 3147 3148 3149 3148 3148 3150 3150 3151 3150 3150 3153 3155 3157 3157 3156 3156 3157 3158 3159 3159 3158 3158 3158 3159 3159 3159 3159 3158 3159 3159 3160 3160 3161 3162 3163 3163 3163 3163 3163 3163 3163 3163
3140 3142 3142 3142 3142 3143 3142 3142 3144 3146 3145 3145 3147 3147 3147 3146 3147 3148 3151 3152 3154 3155 3155 3156 3157 3158 3158 3157 3157 3157 3158 3159 3159 3159 3158 3158 3159 3159 3160 3160 3162 3163 3163 3162 3163 3163 3162 3161 3161
3137 3138 3139 3139 3137 3138 3138 3139 3140 3140 3143 3142 3142 3142 3143 3143 3143 3144 3147 3149 3151 3151 3154 3155 3155 3156 3156 3157 3156 3156 3157 3158 3158 3159 3158 3158 3159 3159 3159 3160 3161 3162 3162 3162 3163 3162 3162 3160 3159
3133 3134 3134 3134 3134 3134 3135 3135 3136 3135 3138 3138 3138 3137 3138 3139 3140 3140 3142 3145 3147 3148 3150 3152 3153 3154 3154 3155 3155 3155 3156 3157 3158 3158 3158 3158 3158 3158 3159 3159 3160 3161 3161 3161 3162 3162 3161 3159 3158
3129 3130 3129 3129 3132 3132 3131 3130 3132 3129 3130 3131 3134 3133 3134 3134 3136 3137 3138 3141 3143 3144 3145 3147 3149 3150 3152 3153 3153 3154 3154 3155 3156 3156 3157 3157 3157 3157 3158 3158 3158 3159 3160 3160 3161 3161 3160 3158 3158
3125 3124 3124 3126 3127 3126 3127 3125 3125 3123 3123 3127 3128 3130 3130 3130 3131 3133 3134 3136 3138 3139 3140 3142 3145 3146 3148 3150 3151 3152 3152 3153 3154 3154 3155 3155 3156 3156 3157 3156 3156 3158 3158 3159 3159 3159 3159 3158 3156
3119 3118 3120 3121 3122 3120 3119 3121 3120 3117 3116 3122 3122 3123 3124 3125 3127 3128 3128 3130 3133 3135 3137 3138 3141 3143 3144 3145 3147 3148 3150 3150 3151 3152 3152 3153 3153 3154 3155 3155 3155 3156 3156 3157 3157 3157 3158 3157 3156
3116 3115 3115 3114 3115 3115 3113 3112 3114 3113 3114 3116 3115 3117 3118 3119 3121 3122 3123 3124 3127 3130 3133 3135 3137 3138 3139 3141 3143 3144 3146 3147 3148 3150 3151 3151 3152 3152 3152 3153 3153 3153 3154 3154 3155 3155 3155 3155 3155
3111 3111 3110 3110 3110 3109 3108 3107 3107 3105 3112 3110 3109 3109 3111 3112 3114 3116 3117 3117 3120 3124 3128 3130 3131 3133 3135 3136 3138 3140 3142 3143 3144 3145 3147 3148 3149 3150 3150 3150 3150 3150 3150 3151 3152 3152 3152 3152 3152
3106 3106 3106 3105 3106 3103 3102 3102 3100 3103 3105 3102 3103 3103 3104 3106 3107 3109 3111 3113 3113 3116 3120 3124 3125 3127 3129 3131 3133 3135 3136 3138 3139 3140 3142 3143 3144 3146 3147 3147 3148 3147 3147 3146 3147 3148 3149 3149 3149
3102 3101 3101 3102 3100 3098 3096 3095 3096 3095 3096 3096 3096 3097 3097 3098 3101 3102 3105 3106 3108 3109 3111 3113 3117 3120 3122 3125 3127 3129 3130 3132 3133 3135 3136 3137 3138 3140 3141 3142 3144 3144 3143 3142 3142 3143 3144 3145 3146
3098 3097 3095 3096 3096 3097 3093 3091 3093 3094 3093 3093 3091 3091 3091 3092 3092 3094 3097 3099 3101 3103 3105 3107 3108 3111 3113 3115 3119 3122 3123 3125 3126 3127 3129 3130 3132 3133 3134 3135 3137 3138 3139 3139 3138 3139 3140 3141 3142
3094 3094 3092 3091 3094 3092 3092 3086 3089 3089 3089 3087 3087 3086 3086 3086 3087 3088 3089 3090 3092 3094 3096 3097 3099 3101 3105 3108 3110 3111 3113 3116 3118 3119 3121 3123 3124 3126 3128 3129 3130 3130 3132 3134 3134 3135 3135 3136 3138
3093 3093 3090 3089 3089 3085 3085 3083 3082 3084 3082 3081 3080 3080 3079 3079 3080 3081 3082 3083 3083 3084 3086 3088 3090 3092 3095 3097 3099 3102 3104 3105 3107 3111 3112 3115 3117 3118 3120 3121 3123 3124 3124 3127 3128 3129 3130 3132 3133
3091 3090 3087 3087 3086 3078 3077 3075 3076 3077 3075 3075 3073 3071 3069 3070 3071 3072 3073 3074 3074 3075 3075 3078 3080 3083 3085 3086 3088 3089 3092 3096 3097 3100 3104 3107 3109 3110 3112 3113 3115 3117 3117 3119 3122 3122 3125 3126 3127
3087 3088 3087 3084 3083 3077 3071 3067 3068 3068 3069 3066 3063 3063 3063 3063 3063 3064 3064 3065 3065 3064 3066 3068 3070 3072 3073 3076 3078 3078 3083 3085 3088 3090 3096 3100 3101 3102 3103 3105 3106 3108 3109 3110 3114 3115 3117 3119 3121
3083 3083 3081 3081 3078 3075 3066 3061 3063 3065 3063 3062 3060 3060 3059 3056 3055 3054 3054 3053 3053 3052 3053 3054 3056 3059 3062 3064 3066 3067 3069 3070 3077 3081 3084 3087 3091 3091 3090 3095 3097 3100 3101 3103 3106 3108 3109 3112 3113
3083 3081 3079 3079 3078 3074 3073 3058 3061 3059 3059 3058 3057 3054 3051 3049 3048 3046 3043 3042 3043 3042 3040 3041 3042 3045 3048 3050 3053 3055 3056 3060 3065 3073 3076 3077 3078 3081 3077 3084 3084 3087 3091 3095 3099 3100 3102 3103 3105
3080 3079 3077 3077 3075 3071 3070 3071 3055 3055 3053 3053 3051 3048 3044 3041 3039 3037 3034 3031 3030 3029 3029 3029 3031 3032 3034 3038 3041 3042 3044 3050 3058 3062 3064 3067 3070 3074 3075 3073 3060 3073 3080 3087 3090 3092 3093 3094 3096
3078 3075 3072 3070 3071 3069 3066 3068 3051 3053 3049 3046 3045 3042 3037 3033 3030 3027 3025 3021 3019 3017 3017 3017 3021 3021 3023 3024 3028 3029 3033 3039 3045 3052 3053 3052 3060 3065 3063 3067 3067 3069 3071 3076 3080 3081 3083 3085 3087
3077 3071 3067 3067 3067 3066 3066 3063 3055 3052 3049 3045 3041 3037 3030 3026 3019 3016 3012 3008 3008 3008 3007 3007 3011 3013 3014 3015 3018 3021 3023 3027 3032 3038 3041 3040 3045 3053 3057 3057 3059 3061 3062 3067 3069 3071 3073 3075 3078
3075 3073 3073 3071 3070 3066 3063 3057 3054 3052 3049 3045 3042 3034 3025 3020 3014 3012 3003 2995 2993 2993 2998 3000 3003 3005 3007 3009 3012 3015 3015 3023 3027 3033 3030 3044 3047 3048 3049 3051 3051 3052 3054 3056 3059 3060 3063 3065 3068
3075 3076 3074 3074 3073 3069 3059 3055 3051 3049 3047 3043 3037 3027 3021 3015 3011 3007 3001 2993 2988 2986 2985 2989 2995 2999 3001 3004 3007 3011 3014 3015 3021 3028 3033 3037 3040 3040 3040 3042 3043 3043 3045 3048 3049 3051 3054 3056 3059
3073 3074 3073 3072 3073 3066 3056 3053 3049 3047 3042 3038 3032 3026 3021 3016 3011 3005 2998 2990 2987 2983 2981 2983 2985 2991 2997 2997 3001 3005 3010 3013 3017 3021 3025 3030 3030 3030 3031 3033 3034 3034 3037 3039 3040 3042 3045 3048 3050
3072 3072 3070 3070 3070 3063 3056 3050 3048 3046 3041 3036 3032 3028 3023 3017 3010 3005 2997 2991 2981 2980 2979 2978 2981 2980 2976 2986 2993 2999 3004 3008 3011 3013 3015 3019 3021 3022 3024 3025 3026 3026 3028 3030 3031 3033 3037 3039 3042
3068 3068 3067 3067 3067 3062 3060 3050 3045 3043 3038 3035 3032 3028 3023 3019 3011 3005 2998 2990 2984 2978 2973 2971 2976 2978 2978 2982 2988 2994 2999 3001 3006 3008 3010 3013 3015 3016 3018 3019 3019 3020 3020 3021 3023 3025 3027 3030 3032